Tracking 19651 objects as of 23-Apr-2019
HD Live streaming from Space Station
objects crossing your sky now

CBERS 1 DEB

Track CBERS 1 DEB now!
10-day predictions


NORAD ID: 31873
Int'l Code: 1999-057PY
Perigee: 705.0 km
Apogee: 709.2 km
Inclination: 98.4 °
Period: 98.8 minutes
Semi major axis: 7078 km
RCS: 0.0141 m2 (small)
Launch date: October 14, 1999
Source: China/Brazil (CHBZ)
Launch site: Taiyaun Space Center, China (TSC)

Note: This is SATELLITE DEBRIS
aabbcc
Your satellite tracking list
Your tracking list is empty




NASA's NSSDC Master Catalog

Two Line Element Set (TLE):
1 31873U 99057PY  19112.78440023  .00001244  00000-0  28175-3 0  9991
2 31873  98.4112  94.9423 0002980 201.1293 279.1221 14.57908074627898
Source of the keplerian elements: AFSPC